Wetbulb
45.99 46.46 45.91 44.76 44.25 45.24 43.71 45.02 41.01 43.79 43.39 46.93 48.42 49.03 48.76 48.94 46.84 45.13 44.02 43.91 44.17 44.32 44.65 44.86 44.62 44.80 45.12 45.42 45.49 45.54 45.21 44.87 44.44 44.75 44.22 43.99 43.61 43.62 43.75 43.81 43.59 44.46 43.92 43.67
36.39 44.07 44.67 42.50 44.32 44.48 44.62 45.36 45.09 44.98 44.41 49.38 48.11 47.69 45.54 44.52 43.73 42.76 42.16 42.94 43.08 43.15 42.50 42.28 42.42 42.78 43.40 43.38 43.30 43.81 42.58 41.38 41.02 40.36 39.67 39.63 39.55 39.70 39.77 40.11 40.54 41.29 41.45 41.38
37.21 43.25 42.41 38.18 42.86 44.45 44.95 46.30 45.96 42.21 46.72 48.97 47.46 45.10 44.39 43.40 42.75 41.62 42.02 41.73 41.26 41.43 41.75 41.82 41.61 41.64 40.65 40.58 40.78 39.28 38.07 37.70 37.52 37.74 37.20 37.46 37.81 37.81 37.87 37.89 38.61 38.34 38.50 39.02
36.81 40.33 31.85 43.47 47.90 46.57 44.95 46.25 47.77 47.68 47.51 47.06 46.25 45.28 44.39 44.44 43.02 41.66 40.85 40.45 40.92 41.42 41.81 41.55 40.34 38.81 38.95 39.09 37.96 37.16 36.57 36.16 36.48 36.09 35.90 36.25 36.31 36.02 36.38 36.61 36.32 36.56 37.48 37.43
36.50 36.48 41.08 43.58 45.91 45.66 44.28 44.11 47.20 45.77 46.77 45.26 44.32 43.75 41.69 42.83 43.00 41.75 40.47 40.75 41.00 41.33 40.76 39.46 37.44 37.60 37.47 36.81 36.58 36.01 34.87 34.89 35.33 35.47 34.92 35.07 34.61 34.76 35.35 35.15 35.59 35.33 36.24 36.67
38.76 33.59 31.07 42.37 45.96 48.22 47.66 39.51 46.99 46.34 46.12 44.71 41.60 35.40 38.60 41.92 41.69 40.29 40.50 40.59 39.58 39.43 38.26 37.03 36.72 37.03 36.09 35.60 35.42 34.31 34.48 34.49 34.99 35.09 34.43 33.60 33.85 33.61 34.29 34.12 33.66 34.50 33.97 35.36
36.92 35.07 40.07 46.52 47.53 48.41 36.96 41.00 45.64 45.80 44.85 41.90 39.08 40.10 40.83 41.44 40.07 40.16 39.89 38.24 36.99 36.32 35.49 35.61 36.29 36.20 34.91 35.13 34.22 34.59 34.69 34.27 34.11 33.90 33.36 33.40 33.18 33.56 33.37 32.68 33.01 33.87 33.63 35.02
36.63 36.33 32.32 48.48 46.70 42.03 47.43 48.10 46.95 46.38 44.34 41.20 40.62 40.27 40.84 41.27 39.18 38.43 37.54 36.04 34.76 34.63 34.58 35.22 35.44 34.64 33.82 33.76 34.63 34.18 33.45 32.90 32.63 32.71 32.69 32.38 31.65 31.88 32.09 31.53 31.45 31.23 31.14 31.28
41.84 41.32 48.17 49.07 48.76 50.41 49.41 48.02 48.49 46.06 43.34 40.73 40.47 40.32 41.84 39.81 38.58 37.32 35.65 34.91 34.68 34.28 33.87 34.55 34.85 34.39 32.98 33.08 33.30 32.51 31.84 31.32 31.46 31.64 31.52 31.18 30.03 30.79 30.78 30.72 29.47 28.39 28.90 27.83
44.09 46.09 48.20 50.37 51.39 51.45 50.37 47.73 46.04 44.99 41.34 41.27 41.15 43.00 40.97 39.35 37.26 35.80 34.70 33.86 34.11 33.56 33.19 33.15 34.18 33.75 33.33 32.50 32.30 31.00 29.81 29.78 30.44 29.71 28.72 29.47 30.51 30.36 29.97 28.87 27.85 27.04 25.74 25.64
45.13 46.64 48.47 49.56 50.60 50.75 49.81 45.66 43.60 43.43 41.52 41.32 44.33 41.98 40.12 37.47 34.69 33.75 33.34 33.66 33.61 32.85 32.62 32.70 33.29 32.92 32.58 31.63 30.77 29.12 28.70 28.71 28.63 28.43 27.71 27.87 28.71 28.10 27.59 27.51 26.70 24.69 25.67 25.96
42.31 47.01 47.65 48.11 50.40 49.99 48.13 44.85 43.83 41.90 40.25 43.40 42.79 40.14 37.76 35.22 33.89 33.06 32.75 33.25 32.76 32.21 32.10 32.13 32.41 31.65 31.13 30.78 29.31 27.87 26.45 26.70 26.83 26.61 26.69 27.37 26.84 26.12 26.59 25.54 25.16 24.99 25.05 25.08
46.90 50.76 50.04 50.41 49.22 48.79 46.85 45.33 42.85 40.51 42.31 38.99 38.61 37.14 34.90 33.54 32.91 27.29 32.42 32.18 31.67 30.95 31.30 31.64 30.91 29.90 29.95 29.33 28.22 26.39 24.96 25.33 25.82 26.75 26.21 25.39 24.74 23.86 22.16 24.98 24.34 24.08 23.99 24.23
49.37 48.91 45.96 46.93 46.42 47.23 46.23 43.35 41.53 41.83 39.65 37.29 35.44 34.32 33.11 32.22 29.66 31.02 31.17 31.58 30.96 30.58 30.46 30.02 28.86 27.87 28.65 28.29 26.57 24.82 25.14 24.69 26.36 26.19 25.79 24.95 24.07 23.81 23.20 21.54 20.38 21.24 23.03 23.12
47.02 47.95 48.52 50.04 47.64 45.90 43.87 41.93 39.56 37.32 35.64 33.93 33.76 32.17 31.47 30.52 30.32 30.04 31.18 30.55 30.00 29.75 29.02 28.32 26.43 26.30 27.53 26.29 24.67 24.59 24.57 25.12 25.72 25.07 24.54 23.87 24.10 23.15 22.60 21.24 20.07 19.80 21.08 21.84
46.85 47.59 48.14 47.87 46.35 44.06 42.02 40.76 37.80 35.89 33.90 32.89 31.70 30.96 30.82 31.19 30.62 30.08 29.94 28.84 26.70 26.15 26.71 24.80 25.00 25.50 25.00 23.91 24.06 24.14 24.49 23.42 23.60 23.83 23.87 22.62 22.60 21.34 20.74 19.33 18.97 18.58 18.65 19.35
44.08 44.55 46.28 46.25 43.71 42.55 41.42 40.43 38.77 36.39 34.00 32.07 30.90 30.89 30.56 30.02 29.20 28.41 28.22 28.41 27.20 24.98 26.03 25.66 23.07 23.49 21.76 22.60 22.75 23.26 23.19 22.92 22.88 23.14 22.31 22.04 21.34 20.09 19.26 19.10 18.32 17.31 17.80 19.06
46.63 47.87 48.23 46.31 43.92 42.65 41.13 39.53 38.10 35.65 32.70 31.95 31.27 30.42 28.02 27.23 27.51 26.42 25.71 25.78 22.83 22.39 24.45 23.06 21.77 21.46 21.23 22.50 21.92 22.17 21.90 22.46 23.19 21.94 21.81 21.20 19.82 19.32 19.19 18.19 16.93 16.82 16.71 17.46
46.44 46.22 47.32 45.77 44.86 43.64 40.65 37.73 36.11 33.91 31.77 30.62 28.42 26.80 25.03 24.46 26.53 25.28 23.59 20.35 20.56 22.71 23.29 22.85 22.06 21.38 22.81 22.26 21.41 21.03 21.23 22.62 22.01 21.62 21.02 19.88 19.87 19.42 18.54 17.66 16.71 15.85 15.83 15.78
45.62 46.19 46.45 45.34 44.90 42.18 38.14 36.36 34.40 31.89 31.07 28.87 26.56 25.03 22.83 21.96 21.69 20.94 20.99 21.62 23.05 24.20 22.69 22.97 21.68 23.22 22.87 21.60 17.58 19.76 22.71 22.01 20.81 20.39 20.22 19.09 19.02 19.08 18.46 16.94 16.33 15.53 15.72 15.15
45.09 44.98 43.95 42.81 40.47 38.21 34.54 32.98 30.36 28.71 28.48 25.99 24.95 23.42 23.19 22.96 21.48 20.72 21.71 25.67 24.35 23.56 22.37 21.79 23.48 23.81 21.78 19.48 17.15 21.78 22.23 21.06 19.94 19.52 19.24 19.19 18.87 17.91 17.80 17.51 16.77 15.80 15.23 14.77
43.87 42.36 36.76 34.83 33.39 31.74 31.04 31.22 29.70 26.65 25.35 24.65 24.49 22.95 22.27 21.91 20.85 21.72 22.11 24.27 26.42 21.01 22.04 23.21 23.92 17.27 17.02 12.98 19.37 21.91 20.96 20.08 19.34 19.34 19.50 18.58 18.50 17.84 17.50 17.33 16.58 15.98 14.72 14.61
41.11 37.83 34.79 31.78 30.66 29.69 30.55 29.77 26.45 25.80 24.01 22.63 21.10 21.99 23.43 27.61 27.68 25.73 25.00 24.95 25.54 21.76 21.42 22.90 17.71 15.43 13.39 16.28 20.81 21.10 20.07 18.63 18.57 18.97 18.47 18.71 17.86 17.63 17.37 17.06 16.59 15.55 14.39 13.60
37.91 35.19 33.13 32.33 31.67 29.58 27.49 26.52 26.75 25.59 24.77 24.08 23.20 24.03 25.96 25.34 26.03 27.13 26.79 23.15 20.43 18.82 20.39 20.94 19.43 14.76 12.28 18.47 20.65 20.30 18.98 18.97 18.71 18.11 17.55 16.26 17.96 17.85 17.61 17.14 15.78 14.75 13.99 12.89
35.31 33.78 32.07 30.95 29.48 29.27 28.19 27.57 27.55 27.04 26.66 27.28 26.02 25.00 26.09 28.27 28.24 27.50 26.54 25.32 20.38 19.64 21.88 20.61 17.49 15.74 18.22 19.63 19.82 18.52 18.54 18.75 18.26 17.33 16.74 15.61 16.78 17.21 16.95 16.51 15.02 14.33 13.97 13.86
33.94 32.57 32.43 31.82 31.58 31.23 29.51 29.25 28.28 28.61 28.28 27.68 27.64 27.68 27.81 27.71 26.39 24.97 24.43 22.12 21.24 21.17 22.10 22.36 21.15 19.35 18.92 19.46 18.40 17.83 18.53 18.39 18.17 17.13 14.97 15.57 16.21 16.01 16.04 14.74 14.45 14.44 14.49 13.99
33.63 31.85 31.74 31.73 32.37 31.30 30.42 30.62 29.91 28.59 29.14 29.97 28.59 28.65 28.19 27.59 26.33 24.64 22.98 23.85 24.02 23.32 22.70 22.87 22.23 20.67 19.39 18.68 17.68 18.73 18.58 18.70 17.20 15.91 15.34 15.49 14.99 15.21 14.57 14.03 14.07 14.67 14.47 14.55
MSLP
1014.19 1014.00 1013.77 1013.36 1012.90 1012.79 1012.70 1012.72 1012.54 1011.98 1011.42 1011.12 1012.01 1012.81 1013.86 1014.81 1015.86 1016.86 1017.83 1018.59 1019.16 1019.56 1020.11 1020.57 1020.94 1021.10 1021.27 1021.31 1021.29 1021.15 1020.74 1020.54 1020.40 1020.34 1020.15 1019.80 1019.49 1019.22 1018.91 1018.60 1018.15 1017.69 1017.10 1016.56
1015.88 1015.25 1014.16 1013.14 1012.26 1012.01 1011.94 1011.86 1011.70 1011.59 1011.21 1012.19 1013.16 1013.93 1014.88 1015.95 1016.92 1017.84 1018.77 1019.53 1020.14 1020.68 1021.25 1021.50 1021.72 1021.84 1021.83 1021.93 1021.85 1021.71 1021.37 1021.18 1021.02 1020.83 1020.58 1020.22 1019.85 1019.38 1018.85 1018.33 1017.74 1017.20 1016.62 1016.23
1015.74 1014.94 1013.99 1013.04 1011.38 1010.97 1011.21 1011.12 1011.18 1011.17 1011.30 1012.14 1013.11 1014.70 1015.76 1016.95 1018.14 1019.11 1020.01 1020.72 1021.16 1021.49 1021.85 1022.17 1022.34 1022.42 1022.41 1022.39 1022.25 1022.21 1022.05 1021.91 1021.66 1021.40 1021.04 1020.64 1020.15 1019.60 1019.01 1018.53 1017.96 1017.29 1016.60 1015.94
1016.71 1015.63 1014.04 1011.92 1011.22 1010.94 1011.08 1011.18 1011.47 1011.88 1012.72 1013.78 1014.77 1016.09 1017.38 1018.19 1019.25 1020.36 1021.06 1021.58 1021.89 1022.19 1022.37 1022.54 1022.86 1022.96 1022.85 1022.71 1022.62 1022.57 1022.50 1022.41 1022.16 1021.79 1021.32 1020.88 1020.37 1019.76 1019.22 1018.66 1017.93 1017.12 1016.32 1015.66
1017.01 1015.31 1013.17 1011.59 1010.93 1010.91 1011.02 1011.50 1012.37 1013.15 1014.07 1015.12 1016.77 1017.75 1018.79 1019.97 1020.71 1021.39 1021.97 1022.38 1022.52 1022.67 1022.83 1022.87 1023.21 1023.28 1023.02 1022.86 1022.81 1022.77 1022.79 1022.66 1022.32 1021.85 1021.24 1020.73 1020.19 1019.68 1019.11 1018.43 1017.79 1017.04 1016.14 1015.28
1017.33 1015.64 1013.37 1011.37 1012.02 1012.15 1012.45 1012.45 1013.37 1014.51 1015.14 1016.06 1017.39 1018.58 1019.42 1020.72 1021.51 1022.09 1022.42 1022.69 1022.84 1022.88 1022.84 1023.13 1023.43 1023.47 1023.17 1023.00 1022.99 1023.05 1023.06 1022.78 1022.40 1021.84 1021.33 1020.73 1020.19 1019.61 1019.06 1018.44 1017.56 1016.87 1016.01 1015.40
1016.99 1015.64 1013.56 1012.00 1012.11 1012.83 1013.20 1013.95 1014.68 1015.38 1016.19 1017.29 1018.38 1019.63 1020.32 1021.38 1022.06 1022.47 1022.75 1022.96 1023.40 1023.18 1023.18 1023.45 1023.62 1023.55 1023.36 1023.17 1023.22 1023.35 1023.18 1022.86 1022.38 1021.91 1021.38 1020.79 1020.16 1019.59 1018.93 1018.17 1017.52 1016.82 1016.13 1015.22
1016.15 1015.01 1013.49 1012.13 1012.72 1013.22 1013.68 1014.47 1015.26 1016.08 1017.09 1018.40 1019.50 1020.17 1020.77 1021.40 1022.13 1022.60 1022.76 1022.94 1023.35 1023.28 1023.45 1023.70 1023.85 1023.77 1023.58 1023.37 1023.67 1023.61 1023.37 1022.86 1022.37 1021.95 1021.44 1020.81 1020.35 1019.59 1018.72 1018.14 1017.41 1016.76 1015.97 1015.03
1013.62 1013.05 1012.87 1012.66 1012.68 1013.54 1014.39 1014.97 1015.38 1016.48 1018.05 1019.39 1019.82 1020.42 1020.76 1021.59 1022.13 1022.67 1022.85 1023.08 1023.48 1023.51 1023.67 1023.78 1023.97 1024.07 1023.92 1024.03 1024.05 1023.85 1023.50 1022.94 1022.44 1021.98 1021.47 1021.10 1020.36 1019.53 1018.73 1018.24 1017.69 1016.97 1016.22 1015.31
1012.85 1012.45 1012.12 1012.31 1012.77 1013.63 1014.50 1015.39 1016.47 1017.42 1018.78 1019.48 1019.72 1019.88 1020.80 1021.58 1022.38 1022.89 1023.00 1023.33 1023.68 1023.83 1023.77 1023.85 1024.12 1024.27 1024.43 1024.56 1024.47 1024.16 1023.64 1023.07 1022.52 1022.00 1021.67 1021.16 1020.58 1019.91 1019.20 1018.66 1018.02 1017.37 1016.63 1015.53
1012.70 1012.66 1012.78 1012.62 1012.45 1012.96 1014.12 1016.10 1017.31 1018.29 1019.09 1019.33 1019.13 1019.98 1020.87 1021.80 1022.71 1023.18 1023.46 1023.83 1024.09 1024.14 1024.12 1024.18 1024.41 1024.47 1024.76 1024.93 1024.84 1024.38 1023.96 1023.38 1022.79 1022.41 1021.95 1021.17 1020.54 1020.31 1019.82 1019.23 1018.88 1017.95 1016.99 1015.96
1012.12 1012.50 1012.22 1012.21 1012.41 1013.66 1014.74 1016.22 1017.45 1018.50 1019.07 1018.87 1019.34 1020.38 1021.38 1022.10 1022.99 1023.47 1023.83 1024.20 1024.35 1024.47 1024.52 1024.64 1024.67 1024.86 1025.11 1025.28 1025.28 1024.85 1024.35 1023.78 1023.33 1022.83 1022.13 1021.38 1020.69 1019.68 1019.81 1019.20 1018.39 1017.85 1017.03 1016.04
1011.85 1011.93 1011.97 1012.48 1013.39 1014.01 1014.98 1016.30 1017.64 1018.54 1018.63 1019.46 1020.29 1020.96 1021.76 1022.47 1023.36 1024.53 1024.20 1024.54 1024.66 1024.80 1024.98 1025.04 1025.23 1025.40 1025.61 1025.69 1025.62 1025.34 1024.94 1024.33 1023.67 1022.82 1022.27 1021.62 1020.92 1020.17 1018.81 1017.99 1017.92 1017.28 1016.52 1015.51
1011.44 1011.69 1012.28 1013.03 1013.19 1014.34 1015.25 1016.63 1017.74 1018.25 1019.19 1020.04 1020.75 1021.50 1022.27 1022.98 1024.16 1024.07 1024.46 1024.91 1025.13 1025.22 1025.28 1025.61 1025.69 1025.81 1026.05 1025.97 1025.88 1025.69 1025.20 1024.56 1023.69 1023.11 1022.56 1021.83 1021.10 1020.22 1019.46 1018.49 1017.43 1016.45 1016.02 1015.26
1010.50 1010.84 1011.02 1011.91 1013.31 1014.44 1015.83 1016.78 1017.45 1018.44 1019.53 1020.40 1021.08 1021.86 1022.68 1023.35 1023.75 1024.31 1024.97 1025.41 1025.48 1025.50 1025.73 1025.97 1026.28 1026.31 1026.36 1026.46 1026.20 1025.59 1025.06 1024.31 1023.79 1023.26 1022.61 1021.92 1020.99 1020.25 1019.57 1018.83 1018.06 1017.13 1016.08 1015.15
1009.88 1010.06 1010.28 1011.47 1012.73 1014.48 1015.79 1016.47 1017.33 1018.48 1019.73 1020.55 1021.31 1022.16 1023.02 1023.60 1024.07 1024.67 1025.34 1025.75 1026.09 1026.13 1026.32 1026.62 1026.72 1026.83 1026.99 1026.92 1026.36 1025.72 1025.09 1024.54 1023.96 1023.15 1022.34 1021.66 1021.05 1020.37 1019.67 1019.08 1018.21 1017.41 1016.62 1015.73
1009.04 1009.00 1009.56 1010.50 1012.52 1013.94 1015.14 1016.30 1017.29 1018.36 1019.61 1020.53 1021.48 1022.48 1023.35 1023.97 1024.48 1025.01 1025.54 1026.10 1026.42 1026.75 1026.65 1026.71 1027.28 1027.46 1027.56 1027.24 1026.66 1025.92 1025.16 1024.43 1023.69 1022.91 1022.33 1021.73 1021.10 1020.48 1019.92 1019.11 1018.35 1017.69 1016.96 1016.27
1008.36 1008.48 1009.40 1011.16 1012.59 1013.61 1014.72 1016.13 1017.37 1018.57 1019.64 1020.61 1021.62 1022.69 1023.71 1024.42 1024.54 1025.31 1026.07 1026.58 1027.04 1027.12 1026.97 1027.53 1027.73 1027.63 1027.45 1027.02 1026.71 1026.01 1025.25 1024.27 1023.34 1022.94 1022.31 1021.69 1021.17 1020.59 1019.82 1019.15 1018.50 1017.76 1017.09 1016.42
1007.64 1008.15 1009.24 1010.77 1012.18 1013.45 1014.88 1016.23 1017.58 1018.94 1020.07 1021.03 1022.20 1023.38 1024.49 1025.22 1025.14 1025.76 1026.67 1027.10 1027.03 1026.73 1027.13 1027.46 1027.46 1027.34 1026.79 1026.75 1026.54 1026.02 1025.16 1024.02 1023.40 1022.86 1022.43 1021.79 1021.12 1020.46 1019.83 1019.13 1018.48 1017.89 1017.27 1016.59
1007.14 1007.89 1008.78 1010.40 1012.02 1013.66 1015.34 1016.76 1018.12 1019.31 1020.47 1021.59 1022.87 1023.86 1024.88 1025.53 1025.99 1026.60 1026.96 1026.63 1026.64 1026.83 1027.27 1027.12 1027.25 1026.70 1026.54 1026.56 1026.63 1025.93 1024.65 1024.13 1023.51 1022.94 1022.38 1021.82 1021.08 1020.43 1019.71 1019.09 1018.50 1017.84 1017.30 1016.71
1007.50 1008.50 1009.75 1011.20 1012.85 1014.64 1016.07 1017.27 1018.44 1019.75 1020.98 1022.24 1023.02 1024.04 1024.71 1025.37 1026.14 1026.62 1026.55 1025.69 1026.41 1026.76 1027.05 1026.99 1026.63 1026.38 1026.80 1026.78 1026.64 1025.38 1024.75 1024.26 1023.69 1023.05 1022.40 1021.79 1021.13 1020.38 1019.67 1019.03 1018.34 1017.76 1017.17 1016.64
1008.57 1009.68 1011.31 1012.64 1014.20 1015.73 1017.06 1017.99 1019.21 1020.59 1021.66 1022.48 1023.35 1024.22 1024.71 1025.36 1026.06 1026.25 1026.19 1025.83 1025.99 1026.72 1026.88 1026.60 1026.36 1027.00 1027.22 1027.24 1026.26 1025.35 1024.84 1024.37 1023.86 1023.12 1022.38 1021.94 1021.24 1020.45 1019.68 1018.90 1018.12 1017.54 1017.08 1016.52
1009.81 1011.25 1012.66 1013.88 1015.11 1016.45 1017.52 1018.58 1020.06 1020.87 1021.71 1022.59 1023.49 1024.00 1024.23 1024.22 1024.55 1024.58 1024.80 1025.59 1025.98 1026.47 1026.75 1026.43 1026.85 1027.10 1027.21 1026.90 1025.97 1025.36 1024.90 1024.47 1023.87 1023.19 1022.65 1022.00 1021.42 1020.62 1019.73 1018.85 1018.10 1017.53 1016.97 1016.41
1010.92 1012.44 1013.68 1014.86 1015.85 1016.71 1017.66 1019.19 1020.08 1021.10 1021.69 1022.64 1023.23 1023.68 1023.88 1024.22 1024.42 1024.49 1024.79 1025.62 1026.18 1026.62 1026.68 1026.64 1026.71 1027.00 1027.04 1026.45 1025.68 1025.26 1024.94 1024.42 1023.82 1023.32 1022.79 1022.14 1021.42 1020.57 1019.78 1018.91 1018.16 1017.62 1016.93 1016.28
1011.76 1012.99 1014.05 1014.78 1015.55 1016.54 1017.65 1018.77 1019.71 1020.54 1021.42 1021.76 1022.64 1023.38 1023.85 1023.72 1023.82 1023.92 1024.79 1025.38 1026.00 1026.36 1026.20 1026.27 1026.49 1026.61 1026.41 1026.00 1025.52 1025.28 1024.82 1024.30 1023.79 1023.37 1022.78 1022.27 1021.34 1020.50 1019.75 1019.03 1018.31 1017.49 1016.62 1015.83
1012.20 1013.02 1013.81 1014.62 1015.13 1016.05 1017.23 1018.16 1018.77 1019.77 1020.33 1020.97 1021.86 1022.69 1023.30 1023.62 1023.97 1024.42 1024.86 1025.36 1025.74 1025.82 1025.84 1025.88 1025.96 1026.10 1025.94 1025.56 1025.40 1025.13 1024.60 1024.06 1023.56 1023.19 1022.93 1022.19 1021.37 1020.61 1019.81 1019.09 1018.25 1017.28 1016.29 1015.42
1012.48 1013.12 1013.81 1014.37 1015.11 1016.07 1016.97 1017.52 1018.28 1019.02 1019.73 1020.48 1021.32 1022.33 1022.94 1023.41 1023.70 1024.10 1024.65 1024.99 1025.09 1025.27 1025.38 1025.39 1025.41 1025.40 1025.43 1025.29 1025.15 1024.65 1024.31 1023.80 1023.48 1023.19 1022.71 1022.09 1021.46 1020.74 1020.00 1019.20 1018.26 1017.20 1016.19 1015.17
Wind_Speed
12 13 12 13 15 15 16 16 16 17 20 13 12 7 6 7 7 7 7 8 8 9 10 11 10 10 10 10 11 12 12 13 13 13 13 14 14 13 13 13 13 14 16 15
3 13 16 15 19 18 18 18 18 17 15 4 4 5 5 5 4 4 5 6 8 9 9 9 10 10 10 10 10 11 12 13 13 14 15 15 16 16 17 17 19 18 16 16
10 10 6 12 15 16 14 12 10 12 13 14 5 4 4 4 3 4 5 6 6 7 7 8 9 10 11 11 11 12 12 13 13 14 15 15 16 17 17 17 18 18 19 20
4 8 6 11 2 5 6 7 9 9 14 11 10 9 5 4 5 3 4 4 5 6 7 8 9 10 10 9 10 10 11 13 14 15 15 16 16 17 17 17 18 17 17 19
4 9 11 15 7 7 5 9 5 2 8 4 5 5 7 6 5 4 4 3 4 5 6 7 9 9 9 9 10 11 12 14 14 15 16 17 17 18 17 17 17 15 18 19
5 6 5 2 6 4 4 10 9 7 7 4 6 3 3 7 5 5 3 4 6 7 7 6 7 8 9 10 10 12 13 14 15 15 16 18 18 18 17 18 18 16 19 20
11 5 8 10 8 2 3 3 2 4 4 4 5 2 9 7 5 3 2 3 6 6 6 7 8 8 10 10 11 13 14 15 15 16 17 17 18 17 18 18 18 16 18 17
7 5 9 5 7 6 5 2 3 5 2 5 7 7 6 6 5 4 1 3 4 4 5 6 8 9 11 11 12 13 15 15 16 17 15 15 19 18 18 18 17 17 18 16
7 6 6 4 3 4 5 7 6 3 6 8 6 8 8 7 5 3 2 3 3 5 6 6 7 9 11 12 13 14 15 16 16 17 17 17 18 17 15 15 14 15 13 15
8 9 12 8 5 7 5 4 2 5 10 8 8 10 8 6 5 3 1 3 5 6 6 7 8 8 10 12 13 15 16 17 16 17 18 17 14 12 13 13 14 13 14 15
12 12 12 16 14 6 5 5 7 8 8 9 10 8 7 6 5 1 1 2 4 5 6 8 8 8 10 12 14 14 15 15 16 14 17 17 15 13 13 14 15 15 14 14
9 9 10 11 8 2 8 9 9 9 9 8 7 8 6 5 4 3 1 2 5 6 7 8 8 10 11 12 14 15 15 13 13 14 14 13 14 15 17 22 27 27 28 20
15 15 16 8 1 6 7 11 11 11 10 10 8 7 6 6 5 4 1 2 4 6 7 8 9 10 11 12 13 14 14 15 13 13 13 14 14 14 17 16 26 25 27 28
17 16 7 9 7 8 8 11 13 11 10 9 9 7 6 6 6 4 1 3 5 6 6 8 9 10 11 13 14 14 14 18 12 12 12 13 13 14 13 15 16 16 20 24
24 22 19 14 8 10 12 13 14 13 12 11 10 9 8 7 6 4 1 3 5 5 6 7 9 10 12 13 14 14 13 12 13 12 12 15 13 13 13 14 14 14 14 16
20 20 21 15 12 13 15 16 15 14 13 12 11 10 8 6 6 4 1 3 5 5 7 6 8 10 12 13 14 13 13 18 15 12 12 13 12 13 13 13 14 13 13 14
20 20 16 12 14 16 18 14 14 14 14 12 11 11 9 7 6 5 2 1 3 4 6 6 8 10 11 11 13 11 11 12 17 12 12 12 13 13 13 13 13 12 13 14
21 20 12 13 15 16 16 15 14 15 13 13 13 10 6 5 4 4 2 2 3 4 4 5 6 7 8 9 11 11 11 12 12 12 12 13 13 13 13 13 14 13 13 14
21 20 16 18 14 15 15 16 15 14 13 13 11 10 8 6 4 4 2 2 4 4 5 5 8 9 9 10 11 11 11 13 13 12 12 15 13 13 13 13 13 14 13 12
17 19 12 12 14 15 16 15 16 15 14 13 10 10 9 6 5 4 5 5 2 3 4 7 8 8 8 11 11 10 11 13 13 12 12 13 13 13 13 16 15 13 12 12
9 12 13 14 15 16 13 14 13 13 12 12 11 10 8 8 6 5 7 3 7 2 5 7 6 6 7 9 11 10 11 12 12 12 12 13 13 14 13 14 13 12 12 12
12 12 10 12 13 12 12 14 14 12 12 11 9 8 8 8 7 7 4 3 1 3 4 5 5 8 8 12 9 10 11 12 12 12 11 12 12 13 13 13 13 12 11 11
11 14 15 15 16 17 16 14 11 12 12 11 10 10 8 6 6 4 3 7 2 5 5 5 6 7 10 8 9 9 11 12 12 12 12 12 12 13 13 14 13 12 12 12
14 15 16 16 17 17 16 14 14 12 10 10 9 7 7 6 4 3 4 5 3 2 5 6 5 7 8 8 8 9 10 10 11 11 12 14 11 12 12 13 12 12 12 13
15 16 17 17 17 12 15 16 14 13 12 11 10 9 8 4 4 4 2 1 2 4 5 6 4 7 6 7 8 9 9 10 10 11 12 12 12 12 12 13 13 13 12 11
16 12 12 15 12 12 12 12 10 10 10 9 8 7 7 5 4 3 4 2 3 4 5 5 5 5 7 8 8 10 10 10 10 10 12 12 12 12 12 14 14 14 13 12
13 12 12 11 10 11 11 11 10 10 9 8 7 8 7 6 5 3 3 3 4 4 5 5 5 6 7 7 8 9 9 9 10 10 11 11 12 12 12 13 13 13 13 12
Wind_Direction
298 310 301 287 279 271 265 244 251 275 292 340 21 40 67 83 85 85 71 59 48 43 40 35 30 25 17 11 7 357 355 352 349 345 336 330 326 324 318 313 311 314 313 310
291 279 267 271 267 263 260 260 269 278 285 28 76 102 85 82 96 92 76 57 50 46 36 29 21 10 7 360 359 351 351 346 342 340 335 332 329 324 321 319 318 313 304 301
269 266 296 283 258 247 256 264 260 286 310 3 195 160 114 122 88 75 58 51 49 39 30 21 10 2 353 350 352 354 350 347 346 341 336 335 331 327 325 323 318 316 314 315
257 279 243 242 317 339 305 297 297 334 358 6 39 84 100 62 109 87 65 46 39 22 5 12 3 353 345 353 353 350 350 343 341 337 330 327 323 320 319 315 312 310 306 302
242 234 266 275 271 266 269 286 51 33 13 43 105 128 129 108 82 94 76 42 18 5 351 356 4 349 343 349 352 347 348 337 331 327 326 323 322 321 318 318 314 311 309 309
210 248 240 78 133 55 332 264 86 53 1 318 166 231 90 141 131 125 100 39 357 342 346 2 0 349 340 347 345 345 337 331 327 329 326 325 322 320 322 315 315 313 313 312
230 257 267 274 118 161 212 69 101 345 325 212 216 86 113 134 141 112 81 8 334 343 353 2 352 347 340 340 349 337 333 330 329 331 328 324 321 322 316 318 317 313 309 309
214 234 256 233 146 222 72 89 299 297 232 175 124 130 157 168 161 159 285 347 342 338 357 359 353 349 339 343 344 338 334 330 332 330 328 324 329 315 320 318 314 314 312 311
208 217 137 185 355 26 330 314 309 219 161 166 161 200 182 178 180 168 334 337 349 349 342 354 359 349 337 347 340 337 333 332 330 329 326 333 320 323 320 321 321 315 316 315
261 264 251 219 248 236 255 286 110 162 175 182 209 194 181 180 176 231 48 349 350 324 343 348 357 344 347 345 341 337 334 332 329 330 336 326 321 321 320 323 317 320 316 310
258 265 283 277 275 328 131 142 153 168 179 214 213 177 178 176 176 183 106 354 333 335 346 343 343 343 352 347 344 337 334 329 333 332 327 319 323 326 323 316 321 316 312 309
246 257 256 291 298 79 163 183 182 183 193 190 179 163 179 165 168 169 142 343 324 343 345 338 337 350 348 351 345 338 331 332 329 324 318 323 323 317 315 314 316 317 314 308
246 248 290 324 199 179 192 176 170 184 182 161 165 159 180 163 154 101 239 291 330 345 333 336 349 346 350 345 341 337 331 323 321 317 327 323 320 318 316 322 318 322 322 320
254 256 235 217 223 196 185 165 171 174 158 168 157 159 158 159 154 165 233 335 350 331 337 353 342 347 346 345 338 332 322 318 318 329 321 319 319 314 318 321 322 326 325 324
255 250 250 251 200 186 172 168 173 170 169 170 160 161 163 179 166 154 162 355 336 312 344 350 347 345 349 345 331 327 326 322 330 322 319 317 315 320 319 319 322 319 322 325
251 252 246 212 205 188 189 182 180 180 174 169 164 165 168 168 151 148 123 31 325 346 328 355 342 347 351 337 328 326 324 326 324 322 318 323 321 321 320 322 317 322 323 324
253 247 239 206 194 193 197 189 190 178 174 169 165 162 166 164 163 165 149 341 9 308 335 342 356 348 338 323 324 323 321 321 321 322 323 323 323 325 320 317 320 321 319 323
255 247 211 208 206 197 191 185 183 172 172 166 157 164 134 172 168 140 132 284 335 323 342 22 328 336 309 312 326 316 322 312 327 327 323 326 327 317 321 322 321 319 321 320
241 245 196 198 205 196 183 174 173 167 159 156 139 146 155 161 163 127 222 251 241 262 65 339 340 315 315 334 327 324 310 320 326 326 327 325 321 324 323 320 322 321 321 318
234 229 209 182 187 172 170 166 162 159 160 145 139 139 151 151 138 167 221 249 320 5 323 333 321 312 335 333 353 307 318 327 325 328 326 322 324 323 323 324 323 321 319 316
195 180 170 165 156 160 160 155 156 149 138 141 149 155 159 147 162 204 220 248 146 99 328 310 309 328 340 342 321 310 328 325 327 325 326 328 323 325 324 325 324 321 319 316
173 162 127 132 138 136 138 153 136 130 137 141 130 140 141 159 189 214 221 280 21 91 328 310 320 25 339 328 304 321 326 329 324 324 328 327 326 325 325 323 324 324 317 312
157 143 146 145 153 148 150 140 143 143 144 142 152 157 168 193 197 203 188 150 260 69 308 305 19 346 332 306 312 320 328 324 325 324 328 325 325 324 323 323 326 325 322 316
149 158 152 154 149 149 148 152 156 151 139 153 153 154 172 196 191 180 124 132 167 345 304 295 319 321 323 299 313 323 321 323 321 329 322 328 323 322 325 325 328 322 319 316
156 153 159 155 156 156 149 158 152 153 162 162 157 162 210 219 212 127 146 174 175 276 301 306 312 295 298 308 314 321 316 319 326 321 326 323 322 327 324 327 323 320 315 315
158 160 157 162 156 152 155 164 160 166 168 159 164 175 186 179 152 166 180 181 270 284 280 314 303 314 300 305 320 308 315 317 323 327 326 321 325 324 325 326 322 321 318 316
160 151 156 153 156 155 164 169 165 165 168 159 173 171 180 180 174 197 145 250 259 284 284 288 303 305 311 306 302 307 312 316 322 328 320 322 327 323 326 323 320 321 321 322